Find Starlink 5698

NORAD ID: 55623 Int'l Des: 2023-020 Owner: SPXS Country: US Constellation: starlink operational
LEOCIRCULAR

現在のビュー

3D地球を読み込み中...

About Starlink 5698

Starlink 5698 (NORAD 55623) is a starlink constellation satellite (v1.5) launched Feb 12, 2023 by SPXS of US. It operates in LEO, CIRCULAR orbit with a mass of 305.00 kg.

Starlink 5698について

説明を読み込み中...

次回通過

Passes for default location (London). Set your location on the main map for personalized predictions.

高度履歴

Loading altitude history...

軌道要素

1 55623U 23020BG 26194.52532681 .00001720 00000-0 71988-4 0 9999
2 55623 43.0050 3.6226 0001548 251.0377 109.0307 15.27586789 11704
Epoch: Jul 13, 2026 • Age: 27 hours

現在のステータス

高度 482.7 km
遠地点 / 近地点 N/A
速度 7.63 km/s
衛星直下点 3.41°N, 161.13°W
打ち上げ日 Feb 12, 2023
運用期間 3.4 years
タイプ internet

技術仕様

分類 Payload
質量 305.00 kg
乾燥質量 290.00 kg
総質量 305.00 kg
長さ 0.20 m
直径 2.80 m
スパン 9.00 m
形状 Box + pan
製造者 SPXS
バスタイプ Starlink
フェーズステータス In Orbit
所有者/国 SPXS/US

Most Searched